EW9274 Weather Reports


Display with metric or nautical units.
time (UTC)temp
F
wind
direction
speed
MPH
gust
MPH
rain 1hr
in
rain 24hr
in
rain mn
in
humidity
%
barometer
mb
20260831231506 83 222 2.0 8.0 0.00 0.18 0.18 71 1012.5
20260831231008 83 269 3.0 8.0 0.00 0.18 0.18 71 1012.4
20260831230513 83 191 3.0 8.0 0.00 0.18 0.18 71 1012.6
20260831230032 83 260 3.0 9.0 0.00 0.18 0.18 71 1012.7
20260831225508 83 219 4.0 12.0 0.00 0.18 0.18 71 1012.6
20260831225015 83 223 2.0 12.0 0.00 0.18 0.18 70 1012.6
20260831224534 84 216 2.0 12.0 0.00 0.18 0.18 70 1012.6
20260831224010 84 319 4.0 12.0 0.00 0.18 0.18 69 1012.4
20260831223516 84 214 3.0 13.0 0.00 0.18 0.18 69 1012.4
20260831223034 84 146 4.0 13.0 0.00 0.18 0.18 69 1012.3
20260831222512 84 225 3.0 8.0 0.00 0.18 0.18 69 1012.1
20260831222018 84 134 2.0 8.0 0.00 0.18 0.18 69 1012.1
20260831221520 85 203 3.0 8.0 0.00 0.18 0.18 68 1012.1
20260831221009 85 202 2.0 8.0 0.00 0.18 0.18 68 1012.3
20260831220517 85 139 3.0 11.0 0.00 0.18 0.18 68 1012.4
20260831220021 86 327 5.0 12.0 0.00 0.18 0.18 66 1012.3
20260831215512 86 257 4.0 12.0 0.00 0.18 0.18 65 1012.3
20260831215018 86 293 3.0 12.0 0.00 0.18 0.18 66 1012.3
20260831214516 86 154 2.0 12.0 0.00 0.18 0.18 67 1012.3
20260831214011 86 194 2.0 10.0 0.00 0.18 0.18 67 1012.3
20260831213516 85 174 1.0 11.0 0.00 0.18 0.18 68 1012.3
20260831213033 85 144 4.0 11.0 0.00 0.18 0.18 68 1012.4
20260831212513 85 273 4.0 10.0 0.00 0.18 0.18 69 1012.4
20260831212004 84 234 3.0 12.0 0.00 0.18 0.18 69 1012.4
20260831211516 84 190 4.0 12.0 0.00 0.18 0.18 69 1012.4
20260831211014 84 275 4.0 12.0 0.00 0.18 0.18 68 1012.4
20260831210504 84 259 6.0 12.0 0.00 0.18 0.18 67 1012.3
20260831210018 84 301 4.0 7.0 0.00 0.18 0.18 68 1012.2
20260831205514 84 261 2.0 7.0 0.00 0.18 0.18 69 1012.1
20260831205021 84 244 4.0 9.0 0.00 0.18 0.18 68 1012.0
20260831204523 84 241 5.0 9.0 0.00 0.18 0.18 69 1012.0
20260831204020 83 236 4.0 9.0 0.00 0.18 0.18 69 1012.0
20260831203503 83 272 2.0 7.0 0.00 0.18 0.18 69 1012.1
20260831203037 83 245 3.0 10.0 0.00 0.18 0.18 69 1012.1
20260831202515 83 208 2.0 10.0 0.00 0.18 0.18 69 1012.2
20260831202004 83 276 6.0 10.0 0.00 0.18 0.18 69 1012.3
20260831201525 83 225 1.0 13.0 0.00 0.18 0.18 69 1012.4
20260831201017 83 201 5.0 13.0 0.00 0.18 0.18 68 1012.6
20260831200503 83 208 5.0 12.0 0.00 0.18 0.18 67 1012.5
20260831200039 83 132 3.0 11.0 0.00 0.18 0.18 67 1012.4
20260831195515 84 249 5.0 12.0 0.00 0.18 0.18 66 1012.3
20260831195006 84 186 3.0 13.0 0.00 0.18 0.18 66 1012.2
20260831194527 84 213 6.0 18.0 0.00 0.18 0.18 65 1012.3
20260831194019 84 238 4.0 18.0 0.00 0.18 0.18 65 1012.3
20260831193509 85 205 6.0 17.0 0.00 0.18 0.18 64 1012.4
20260831193028 86 221 7.0 17.0 0.00 0.18 0.18 62 1012.3
20260831192519 87 213 5.0 15.0 0.00 0.18 0.18 61 1012.4
20260831192008 87 267 7.0 14.0 0.00 0.18 0.18 60 1012.6
20260831191532 87 259 3.0 16.0 0.00 0.18 0.18 59 1012.3
20260831191017 88 203 9.0 16.0 0.00 0.18 0.18 58 1012.4
20260831190516 88 236 6.0 16.0 0.00 0.18 0.18 58 1012.4
20260831190047 88 252 7.0 15.0 0.00 0.18 0.18 58 1012.3
20260831185519 88 225 8.0 17.0 0.00 0.18 0.18 57 1012.3
20260831185012 88 246 8.0 17.0 0.00 0.18 0.18 56 1012.3
20260831184532 88 245 7.0 16.0 0.00 0.18 0.18 57 1012.3
20260831184016 88 235 7.0 17.0 0.00 0.18 0.18 56 1012.4
20260831183513 88 235 8.0 17.0 0.00 0.18 0.18 56 1012.4
20260831183034 88 245 5.0 16.0 0.00 0.18 0.18 58 1012.4
20260831182508 87 159 5.0 17.0 0.00 0.18 0.18 57 1012.3
20260831182013 88 242 4.0 17.0 0.00 0.18 0.18 57 1012.3
20260831181541 88 205 7.0 18.0 0.00 0.18 0.18 57 1012.4
20260831181007 87 260 9.0 18.0 0.00 0.18 0.18 58 1012.4
20260831180513 86 272 9.0 14.0 0.00 0.18 0.18 61 1012.5
20260831180037 85 112 6.0 12.0 0.00 0.18 0.18 64 1012.4
20260831175507 84 171 4.0 11.0 0.00 0.18 0.18 67 1012.7
20260831175015 83 194 3.0 11.0 0.00 0.18 0.18 67 1012.8
20260831174537 83 207 4.0 12.0 0.00 0.18 0.18 67 1013.0
20260831174011 82 198 4.0 12.0 0.00 0.18 0.18 67 1013.1
20260831173512 82 186 3.0 15.0 0.00 0.18 0.18 66 1013.1
20260831173032 82 263 7.0 15.0 0.00 0.18 0.18 66 1013.1
20260831172519 83 242 3.0 16.0 0.00 0.18 0.18 64 1013.0
20260831172013 84 155 7.0 16.0 0.00 0.18 0.18 62 1013.1
20260831171533 85 254 6.0 19.0 0.00 0.18 0.18 61 1013.2
20260831171014 85 263 4.0 19.0 0.00 0.18 0.18 61 1013.2
20260831170519 85 223 9.0 19.0 0.00 0.18 0.18 60 1013.3
20260831170037 85 207 4.0 15.0 0.00 0.18 0.18 61 1013.3
20260831165519 85 272 6.0 15.0 0.00 0.18 0.18 60 1013.3
20260831164959 85 220 4.0 11.0 0.00 0.18 0.18 62 1013.3
20260831164503 84 213 5.0 10.0 0.00 0.18 0.18 62 1013.4
20260831164000 84 177 5.0 11.0 0.00 0.18 0.18 62 1013.5
20260831163505 84 117 4.0 11.0 0.00 0.18 0.18 63 1013.5
20260831163006 85 352 4.0 10.0 0.00 0.18 0.18 61 1013.3
20260831162505 85 279 2.0 14.0 0.00 0.18 0.18 61 1013.2
20260831162004 84 194 7.0 14.0 0.00 0.18 0.18 62 1013.3
20260831161506 83 144 3.0 9.0 0.00 0.18 0.18 63 1013.3
20260831161006 83 243 4.0 9.0 0.00 0.18 0.18 63 1013.3
20260831160503 82 48 3.0 9.0 0.00 0.18 0.18 64 1013.3
20260831160002 82 206 3.0 10.0 0.00 0.18 0.18 64 1013.3
20260831155506 82 184 4.0 10.0 0.00 0.18 0.18 64 1013.3
20260831155004 81 211 6.0 13.0 0.00 0.18 0.18 64 1013.3
20260831154513 82 132 4.0 13.0 0.00 0.18 0.18 64 1013.3
20260831154006 83 165 2.0 10.0 0.00 0.18 0.18 65 1013.4
20260831153506 82 336 2.0 10.0 0.00 0.18 0.18 66 1013.4
20260831153010 81 222 3.0 8.0 0.00 0.18 0.18 68 1013.5
20260831152503 79 197 2.0 5.0 0.00 0.18 0.18 70 1013.6
20260831152006 78 273 2.0 7.0 0.00 0.18 0.18 71 1013.5
20260831151503 78 203 4.0 17.0 0.00 0.18 0.18 70 1013.5
20260831151003 79 93 3.0 17.0 0.00 0.18 0.18 70 1013.6
20260831150503 79 280 2.0 10.0 0.00 0.18 0.18 70 1013.6
20260831150003 78 194 4.0 10.0 0.00 0.18 0.18 71 1013.7
20260831145503 78 180 3.0 8.0 0.00 0.18 0.18 71 1013.7
20260831145003 78 18 3.0 8.0 0.00 0.18 0.18 71 1013.7
20260831144503 77 240 3.0 8.0 0.00 0.18 0.18 72 1013.6
20260831144002 77 142 3.0 8.0 0.00 0.18 0.18 72 1013.6
20260831143504 77 226 4.0 8.0 0.00 0.18 0.18 73 1013.6
20260831143003 77 186 2.0 9.0 0.00 0.18 0.18 73 1013.7
20260831142505 77 188 2.0 9.0 0.00 0.18 0.18 74 1013.5
20260831142003 76 205 3.0 9.0 0.00 0.18 0.18 74 1013.5
20260831141506 76 128 4.0 9.0 0.00 0.18 0.18 74 1013.6
20260831141005 75 115 2.0 9.0 0.00 0.18 0.18 76 1013.6
20260831140505 75 322 3.0 10.0 0.00 0.18 0.18 76 1013.6
20260831140008 75 113 3.0 10.0 0.00 0.18 0.18 75 1013.5
20260831135504 75 198 2.0 7.0 0.00 0.18 0.18 75 1013.6
20260831135004 74 151 3.0 6.0 0.00 0.18 0.18 77 1013.7
20260831134507 74 155 2.0 8.0 0.00 0.18 0.18 76 1013.7
20260831134005 74 136 3.0 8.0 0.00 0.18 0.18 77 1013.7
20260831133502 74 148 2.0 5.0 0.00 0.18 0.18 78 1013.7
20260831133005 74 233 1.0 6.0 0.00 0.18 0.18 78 1013.6
20260831132506 73 244 2.0 6.0 0.00 0.18 0.18 79 1013.7
20260831132004 73 231 1.0 6.0 0.00 0.18 0.18 80 1013.5
20260831131511 73 205 1.0 6.0 0.00 0.18 0.18 80 1013.4
20260831131004 73 232 1.0 5.0 0.00 0.18 0.18 80 1013.5
20260831130504 73 221 2.0 5.0 0.00 0.18 0.18 80 1013.4
20260831130008 73 242 2.0 4.0 0.00 0.18 0.18 80 1013.3
20260831125504 72 133 1.0 5.0 0.00 0.18 0.18 82 1013.3
20260831125003 72 213 2.0 5.0 0.00 0.18 0.18 82 1013.3
20260831124508 72 172 1.0 5.0 0.00 0.18 0.18 83 1013.3
20260831124005 72 187 2.0 5.0 0.00 0.18 0.18 84 1013.5
20260831123503 72 273 1.0 5.0 0.00 0.18 0.18 83 1013.6
20260831123010 72 163 2.0 5.0 0.00 0.18 0.18 84 1013.7
20260831122505 72 150 1.0 6.0 0.00 0.18 0.18 83 1013.6
20260831122004 72 263 2.0 7.0 0.00 0.18 0.18 83 1013.6
20260831121521 72 229 2.0 8.0 0.00 0.18 0.18 84 1013.6
20260831121004 72 284 1.0 8.0 0.00 0.18 0.18 84 1013.4
20260831120503 71 259 2.0 7.0 0.01 0.18 0.18 85 1013.4
20260831120030 71 269 2.0 7.0 0.01 0.18 0.18 86 1013.4
20260831115507 71 211 1.0 5.0 0.01 0.18 0.18 86 1013.5
20260831115005 71 263 1.0 4.0 0.01 0.18 0.18 87 1013.5
20260831114519 71 229 1.0 6.0 0.01 0.18 0.18 87 1013.5
20260831114007 71 213 1.0 6.0 0.01 0.18 0.18 88 1013.5
20260831113502 71 266 0.0 4.0 0.01 0.18 0.18 88 1013.5
20260831113014 71 225 0.0 2.0 0.01 0.19 0.18 88 1013.6
20260831112507 71 214 1.0 2.0 0.03 0.20 0.18 88 1013.6
20260831112006 71 248 1.0 2.0 0.03 0.20 0.18 88 1013.6
20260831111517 71 241 0.0 2.0 0.04 0.20 0.18 88 1013.6
20260831111007 71 225 0.0 2.0 0.04 0.20 0.18 88 1013.7
20260831110506 71 248 0.0 5.0 0.05 0.19 0.17 88 1013.6
20260831110016 71 232 0.0 5.0 0.05 0.19 0.17 88 1013.6
20260831105508 71 226 0.0 3.0 0.05 0.19 0.17 88 1013.6
20260831105009 71 178 1.0 2.0 0.05 0.19 0.17 89 1013.5
20260831104531 71 269 1.0 3.0 0.05 0.19 0.17 89 1013.6
20260831104009 71 186 0.0 5.0 0.09 0.19 0.17 89 1013.8
20260831103504 71 246 1.0 7.0 0.16 0.19 0.17 90 1014.0
20260831103021 71 153 2.0 7.0 0.17 0.20 0.17 90 1013.9
20260831102507 71 213 0.0 2.0 0.15 0.18 0.15 90 1014.2
20260831102007 71 100 1.0 2.0 0.15 0.19 0.15 90 1014.3
20260831101523 71 122 0.0 3.0 0.14 0.18 0.14 90 1014.5
20260831101005 71 99 1.0 3.0 0.14 0.18 0.14 90 1014.5
20260831100509 71 332 0.0 3.0 0.12 0.18 0.12 89 1014.8
20260831100028 71 99 0.0 2.0 0.12 0.18 0.12 89 1014.6
20260831095503 71 40 0.0 2.0 0.12 0.18 0.12 89 1014.7
20260831095007 71 69 1.0 3.0 0.12 0.18 0.12 88 1014.4
20260831094520 71 321 0.0 3.0 0.12 0.18 0.12 87 1014.5
20260831094003 72 293 1.0 2.0 0.08 0.14 0.08 86 1014.4
20260831093509 72 259 0.0 2.0 0.01 0.07 0.01 85 1014.3
20260831093022 72 91 0.0 2.0 0.00 0.06 0.00 84 1013.9
20260831092504 72 55 0.0 2.0 0.00 0.06 0.00 84 1014.1
20260831092011 72 40 0.0 2.0 0.00 0.06 0.00 84 1013.9
20260831091527 72 50 0.0 2.0 0.00 0.06 0.00 84 1013.9
20260831091005 72 51 0.0 2.0 0.00 0.07 0.00 84 1013.9
20260831090513 72 57 0.0 2.0 0.00 0.07 0.00 84 1013.9
20260831090024 72 74 0.0 2.0 0.00 0.07 0.00 85 1014.0
20260831085504 72 61 0.0 2.0 0.00 0.07 0.00 85 1013.9
20260831085011 72 57 0.0 2.0 0.00 0.07 0.00 85 1014.0
20260831084528 71 69 0.0 0.0 0.00 0.07 0.00 85 1014.0
20260831084005 71 73 0.0 1.0 0.00 0.07 0.00 85 1014.0
20260831083511 71 78 0.0 2.0 0.00 0.07 0.00 85 1014.0
20260831083026 71 92 0.0 2.0 0.00 0.07 0.00 85 1014.0
20260831082510 71 65 0.0 2.0 0.00 0.07 0.00 86 1014.1
20260831082011 71 75 0.0 3.0 0.00 0.07 0.00 86 1014.0
20260831081539 71 156 0.0 3.0 0.00 0.07 0.00 86 1014.1
20260831081006 71 92 2.0 3.0 0.00 0.07 0.00 87 1013.9
20260831080514 71 51 0.0 2.0 0.00 0.08 0.00 87 1013.9
20260831080028 71 55 0.0 2.0 0.00 0.08 0.00 87 1013.8
20260831075508 70 96 0.0 2.0 0.00 0.08 0.00 88 1014.0
20260831075013 70 39 0.0 2.0 0.00 0.08 0.00 88 1014.1
20260831074515 71 59 0.0 2.0 0.00 0.08 0.00 87 1014.2
20260831074014 71 81 0.0 4.0 0.00 0.08 0.00 87 1014.3
20260831073512 71 78 2.0 4.0 0.00 0.08 0.00 87 1014.3
20260831073014 71 82 1.0 4.0 0.00 0.08 0.00 87 1014.4
20260831072509 71 92 1.0 4.0 0.00 0.08 0.00 87 1014.5
20260831072002 71 71 0.0 2.0 0.00 0.08 0.00 87 1014.7
20260831071515 71 65 0.0 3.0 0.00 0.08 0.00 87 1014.7
20260831071012 71 70 1.0 3.0 0.00 0.08 0.00 87 1014.8
20260831070504 71 55 2.0 4.0 0.00 0.08 0.00 88 1014.9
20260831070023 71 55 3.0 4.0 0.00 0.08 0.00 88 1015.0
20260831065512 71 64 1.0 2.0 0.00 0.08 0.00 87 1015.1
20260831065004 71 61 0.0 2.0 0.00 0.08 0.00 87 1015.2
20260831064515 71 63 0.0 2.0 0.00 0.08 0.00 87 1015.2
20260831064013 71 71 0.0 2.0 0.00 0.11 0.00 87 1015.2
20260831063507 71 53 0.0 2.0 0.00 0.11 0.00 87 1015.2
20260831063016 71 55 0.0 2.0 0.00 0.11 0.00 87 1015.3
20260831062517 71 57 0.0 2.0 0.00 0.11 0.00 87 1015.3
20260831062004 71 53 0.0 2.0 0.00 0.11 0.00 87 1015.4
20260831061518 71 48 1.0 2.0 0.00 0.11 0.00 87 1015.4
20260831061014 71 22 0.0 2.0 0.00 0.11 0.00 87 1015.5
20260831060506 71 19 0.0 2.0 0.00 0.11 0.00 87 1015.5
20260831060023 71 36 0.0 2.0 0.00 0.11 0.00 87 1015.4
20260831055513 71 39 0.0 2.0 0.00 0.11 0.00 87 1015.5
20260831055004 71 20 0.0 2.0 0.00 0.11 0.00 87 1015.6
20260831054525 72 19 0.0 2.0 0.00 0.11 0.00 87 1015.5
20260831054019 72 16 0.0 2.0 0.00 0.11 0.00 86 1015.4
20260831053504 72 63 0.0 2.0 0.00 0.11 0.00 86 1015.3
20260831053025 72 36 0.0 2.0 0.00 0.11 0.00 86 1015.3
20260831052514 72 71 0.0 2.0 0.00 0.11 0.00 86 1015.3
20260831052008 72 37 0.0 2.0 0.00 0.11 0.00 86 1015.2
20260831051544 72 92 0.0 2.0 0.00 0.11 0.00 85 1015.0
20260831051016 73 92 0.0 2.0 0.00 0.11 0.00 85 1015.2
20260831050508 73 79 0.0 2.0 0.00 0.11 0.00 84 1015.2
20260831050027 73 108 0.0 2.0 0.00 0.11 0.00 84 1015.3
20260831045519 73 37 0.0 2.0 0.00 0.11 0.11 84 1015.3
20260831045008 73 68 1.0 2.0 0.00 0.11 0.11 84 1015.2
20260831044528 73 75 1.0 2.0 0.00 0.11 0.11 84 1015.2
20260831044013 73 36 0.0 3.0 0.00 0.11 0.11 83 1015.2
20260831043508 73 5 1.0 7.0 0.00 0.11 0.11 84 1015.3
20260831043026 72 297 1.0 7.0 0.00 0.11 0.11 84 1015.2
20260831042517 72 251 3.0 7.0 0.00 0.11 0.11 84 1015.2
20260831042011 73 240 4.0 7.0 0.00 0.11 0.11 84 1015.3
20260831041535 73 247 3.0 7.0 0.00 0.11 0.11 84 1015.2
20260831041005 73 241 4.0 6.0 0.00 0.11 0.11 84 1015.2
20260831040512 73 240 1.0 4.0 0.00 0.11 0.11 83 1014.9
20260831040042 73 208 1.0 4.0 0.00 0.11 0.11 83 1014.7
20260831035506 73 240 1.0 6.0 0.00 0.11 0.11 83 1014.9
20260831035012 73 257 2.0 6.0 0.00 0.11 0.11 83 1014.9
20260831034533 73 284 2.0 6.0 0.00 0.11 0.11 83 1015.0
20260831034007 73 284 2.0 4.0 0.00 0.11 0.11 83 1014.7
20260831033513 73 232 1.0 7.0 0.00 0.11 0.11 83 1014.4
20260831033034 73 257 1.0 7.0 0.00 0.11 0.11 83 1014.5
20260831032507 72 260 3.0 7.0 0.00 0.11 0.11 83 1014.8
20260831032010 72 233 2.0 7.0 0.00 0.11 0.11 83 1014.3
20260831031533 73 156 2.0 7.0 0.00 0.11 0.11 83 1014.5
20260831031009 73 258 2.0 9.0 0.00 0.11 0.11 83 1014.1
20260831030513 73 229 3.0 9.0 0.00 0.11 0.11 83 1014.3
20260831030035 72 219 2.0 8.0 0.00 0.11 0.11 84 1014.3
20260831025511 72 129 3.0 7.0 0.00 0.11 0.11 84 1014.6
20260831025015 72 221 1.0 5.0 0.00 0.11 0.11 84 1014.9
20260831024531 72 226 2.0 5.0 0.00 0.11 0.11 84 1015.0
20260831024010 72 111 2.0 7.0 0.00 0.11 0.11 84 1015.1
20260831023516 72 235 3.0 7.0 0.00 0.11 0.11 84 1015.2
20260831023040 72 250 1.0 6.0 0.00 0.11 0.11 84 1015.2
20260831022513 72 243 1.0 5.0 0.00 0.11 0.11 84 1015.2
20260831022016 72 208 1.0 7.0 0.00 0.11 0.11 84 1015.2
20260831021548 72 207 3.0 7.0 0.00 0.11 0.11 84 1015.1
20260831021010 72 175 3.0 8.0 0.00 0.11 0.11 84 1015.0
20260831020514 72 212 2.0 9.0 0.00 0.11 0.11 84 1014.9
20260831020034 72 202 3.0 9.0 0.00 0.11 0.11 84 1014.9
20260831015512 72 210 3.0 9.0 0.00 0.11 0.11 84 1014.8
20260831015019 72 253 3.0 8.0 0.00 0.11 0.11 84 1015.0
20260831014532 72 242 3.0 8.0 0.00 0.11 0.11 84 1014.9
20260831014012 72 277 2.0 8.0 0.00 0.11 0.11 85 1015.0
20260831013517 72 198 3.0 8.0 0.00 0.11 0.11 85 1015.0
20260831013034 72 210 3.0 8.0 0.00 0.11 0.11 85 1014.9
20260831012514 72 205 2.0 11.0 0.00 0.11 0.11 86 1015.0
20260831012016 72 193 5.0 11.0 0.00 0.11 0.11 86 1015.0
20260831011518 72 148 4.0 10.0 0.00 0.11 0.11 86 1015.2
20260831011011 72 133 3.0 10.0 0.00 0.11 0.11 86 1015.2
20260831010517 72 229 2.0 8.0 0.00 0.11 0.11 86 1015.1
20260831010041 72 236 2.0 6.0 0.00 0.11 0.11 86 1015.0
20260831005516 72 255 1.0 7.0 0.00 0.11 0.11 86 1014.7
20260831005014 72 220 3.0 8.0 0.00 0.11 0.11 86 1014.7
20260831004523 72 229 4.0 8.0 0.00 0.11 0.11 86 1014.5
20260831004014 72 234 2.0 7.0 0.00 0.11 0.11 85 1014.5
20260831003519 72 249 3.0 7.0 0.00 0.11 0.11 85 1014.6
20260831003024 73 126 1.0 10.0 0.00 0.11 0.11 85 1014.4
20260831002514 73 254 1.0 10.0 0.00 0.11 0.11 85 1014.4
20260831002018 73 232 3.0 6.0 0.00 0.11 0.11 85 1014.4
20260831001539 73 228 1.0 4.0 0.00 0.11 0.11 85 1014.4
20260831001018 73 210 1.0 5.0 0.00 0.11 0.11 84 1014.4
20260831000507 73 159 2.0 5.0 0.00 0.11 0.11 84 1014.3
20260831000027 73 130 1.0 6.0 0.00 0.11 0.11 84 1014.2
20260830235503 74 184 2.0 6.0 0.00 0.11 0.11 84 1014.1
20260830235006 74 197 2.0 7.0 0.00 0.11 0.11 83 1014.1
20260830234529 74 233 4.0 7.0 0.00 0.11 0.11 83 1014.1
20260830234003 74 131 3.0 7.0 0.00 0.11 0.11 82 1014.0
20260830233510 74 232 1.0 7.0 0.00 0.11 0.11 82 1014.0
20260830233024 74 142 2.0 8.0 0.00 0.11 0.11 81 1014.0
20260830232503 74 226 3.0 9.0 0.00 0.11 0.11 81 1014.1
20260830232008 75 185 3.0 9.0 0.00 0.11 0.11 80 1014.2